Time,TemperatureF,DewpointF,PressureIn,WindDirection,WindDirectionDegrees,WindSpeedMPH,WindSpeedGustMPH,Humidity,HourlyPrecipIn,Conditions,Clouds,dailyrainin,SolarRadiationWatts/m^2,SoftwareType,DateUTC
2013-12-11 00:00:00,22.6,17.7,30.27,ESE,112,0.0,0.0,81,0.00,,CLR,0.01,0.00,VWS V14.01,2013-12-11 06:00:00,
2013-12-11 00:03:00,22.5,17.6,30.27,ESE,112,0.0,0.0,81,0.00,,CLR,0.00,0.00,VWS V14.01,2013-12-11 06:03:00,
2013-12-11 00:05:00,22.4,17.5,30.27,ESE,112,0.0,0.0,81,0.00,,CLR,0.00,0.00,VWS V14.01,2013-12-11 06:05:00,
2013-12-11 00:09:00,22.2,17.3,30.27,ESE,112,0.0,1.0,81,0.00,,CLR,0.00,0.00,VWS V14.01,2013-12-11 06:09:00,
2013-12-11 00:10:00,22.1,17.2,30.27,ESE,112,0.0,1.0,81,0.00,,CLR,0.00,0.00,VWS V14.01,2013-12-11 06:10:00,
2013-12-11 00:14:00,22.0,16.8,30.27,ESE,112,0.0,0.0,80,0.00,,CLR,0.00,0.00,VWS V14.01,2013-12-11 06:14:00,
2013-12-11 00:15:00,21.9,16.7,30.27,ESE,112,0.0,0.0,80,0.00,,CLR,0.00,0.00,VWS V14.01,2013-12-11 06:15:00,
2013-12-11 00:19:00,21.7,16.2,30.27,ESE,112,0.0,0.0,79,0.00,,CLR,0.00,0.00,VWS V14.01,2013-12-11 06:19:00,
2013-12-11 00:20:00,21.5,16.0,30.27,ESE,112,0.0,0.0,79,0.00,,CLR,0.00,0.00,VWS V14.01,2013-12-11 06:20:00,
2013-12-11 00:24:00,21.3,15.5,30.27,ESE,112,0.0,0.0,78,0.00,,CLR,0.00,0.00,VWS V14.01,2013-12-11 06:24:00,
2013-12-11 00:25:00,21.2,15.4,30.27,ESE,112,0.0,0.0,78,0.00,,CLR,0.00,0.00,VWS V14.01,2013-12-11 06:25:00,
2013-12-11 00:29:00,20.8,15.0,30.27,ESE,112,0.0,2.0,78,0.00,,CLR,0.00,0.00,VWS V14.01,2013-12-11 06:29:00,
2013-12-11 00:30:00,20.6,14.8,30.26,ESE,112,0.0,2.0,78,0.00,,CLR,0.00,0.00,VWS V14.01,2013-12-11 06:30:00,
2013-12-11 00:34:00,19.7,14.3,30.26,ESE,112,0.0,1.0,79,0.00,,CLR,0.00,0.00,VWS V14.01,2013-12-11 06:34:00,
2013-12-11 00:35:00,19.3,13.9,30.26,ESE,112,0.0,1.0,79,0.00,,CLR,0.00,0.00,VWS V14.01,2013-12-11 06:35:00,
2013-12-11 00:40:00,18.8,13.7,30.26,ESE,112,0.0,0.0,80,0.00,,CLR,0.00,0.00,VWS V14.01,2013-12-11 06:40:00,
2013-12-11 00:45:00,18.3,13.5,30.26,ESE,112,0.0,0.0,81,0.00,,CLR,0.00,0.00,VWS V14.01,2013-12-11 06:45:00,
2013-12-11 00:50:00,17.7,13.1,30.26,ESE,112,0.0,0.0,82,0.00,,CLR,0.00,0.00,VWS V14.01,2013-12-11 06:50:00,
2013-12-11 00:55:00,17.4,13.1,30.26,ESE,112,0.0,0.0,83,0.00,,CLR,0.00,0.00,VWS V14.01,2013-12-11 06:55:00,
2013-12-11 01:00:00,17.1,13.4,30.26,ESE,112,0.0,0.0,85,0.00,,CLR,0.00,0.00,VWS V14.01,2013-12-11 07:00:00,
2013-12-11 01:05:00,17.1,13.6,30.26,ESE,112,0.0,0.0,86,0.00,,CLR,0.00,0.00,VWS V14.01,2013-12-11 07:05:00,
2013-12-11 01:10:00,17.1,13.9,30.26,ESE,112,0.0,0.0,87,0.00,,CLR,0.00,0.00,VWS V14.01,2013-12-11 07:10:00,
2013-12-11 01:15:00,17.1,13.9,30.27,ESE,112,0.0,0.0,87,0.00,,CLR,0.00,0.00,VWS V14.01,2013-12-11 07:15:00,
2013-12-11 01:20:00,16.8,13.4,30.27,ESE,112,0.0,0.0,86,0.00,,CLR,0.00,0.00,VWS V14.01,2013-12-11 07:20:00,
2013-12-11 01:25:00,16.5,13.1,30.27,ESE,112,0.0,0.0,86,0.00,,CLR,0.00,0.00,VWS V14.01,2013-12-11 07:25:00,
2013-12-11 01:30:00,16.2,13.0,30.27,ESE,112,0.0,0.0,87,0.00,,CLR,0.00,0.00,VWS V14.01,2013-12-11 07:30:00,
2013-12-11 01:35:00,16.1,13.2,30.27,ESE,112,0.0,1.0,88,0.00,,CLR,0.00,0.00,VWS V14.01,2013-12-11 07:35:00,
2013-12-11 01:40:00,16.0,13.1,30.27,ESE,112,0.0,0.0,88,0.00,,CLR,0.00,0.00,VWS V14.01,2013-12-11 07:40:00,
2013-12-11 01:45:00,15.8,12.6,30.27,ESE,112,0.0,0.0,87,0.00,,CLR,0.00,0.00,VWS V14.01,2013-12-11 07:45:00,
2013-12-11 01:50:00,15.5,12.1,30.27,ESE,112,0.0,0.0,86,0.00,,CLR,0.00,0.00,VWS V14.01,2013-12-11 07:50:00,
2013-12-11 01:55:00,15.2,11.8,30.27,ESE,112,0.0,0.0,86,0.00,,CLR,0.00,0.00,VWS V14.01,2013-12-11 07:55:00,
2013-12-11 02:00:00,14.9,11.5,30.27,ESE,112,0.0,0.0,86,0.00,,CLR,0.00,0.00,VWS V14.01,2013-12-11 08:00:00,
2013-12-11 02:05:00,14.6,11.4,30.27,ESE,112,0.0,0.0,87,0.00,,CLR,0.00,0.00,VWS V14.01,2013-12-11 08:05:00,
2013-12-11 02:10:00,14.5,11.6,30.27,ESE,112,0.0,1.0,88,0.00,,CLR,0.00,0.00,VWS V14.01,2013-12-11 08:10:00,
2013-12-11 02:15:00,14.3,11.4,30.27,ESE,112,0.0,0.0,88,0.00,,CLR,0.00,0.00,VWS V14.01,2013-12-11 08:15:00,
2013-12-11 02:16:00,14.3,11.4,30.27,ESE,112,0.0,0.0,88,0.00,,CLR,0.00,0.00,VWS V14.01,2013-12-11 08:16:00,
2013-12-11 02:20:00,14.2,11.6,30.27,ESE,112,0.0,0.0,89,0.00,,CLR,0.00,0.00,VWS V14.01,2013-12-11 08:20:00,
2013-12-11 02:21:00,14.2,11.6,30.27,ESE,112,0.0,0.0,89,0.00,,CLR,0.00,0.00,VWS V14.01,2013-12-11 08:21:00,
2013-12-11 02:25:00,14.2,11.8,30.27,ESE,112,0.0,0.0,90,0.00,,CLR,0.00,0.00,VWS V14.01,2013-12-11 08:25:00,
2013-12-11 02:26:00,14.2,11.8,30.27,ESE,112,0.0,0.0,90,0.00,,CLR,0.00,0.00,VWS V14.01,2013-12-11 08:26:00,
2013-12-11 02:30:00,14.6,12.5,30.27,ESE,112,0.0,1.0,91,0.00,,CLR,0.00,0.00,VWS V14.01,2013-12-11 08:30:00,
2013-12-11 02:31:00,14.6,12.5,30.27,ESE,112,0.0,0.0,91,0.00,,CLR,0.00,0.00,VWS V14.01,2013-12-11 08:31:00,
2013-12-11 02:35:00,14.7,12.6,30.27,ESE,112,0.0,0.0,91,0.00,,CLR,0.00,0.00,VWS V14.01,2013-12-11 08:35:00,
2013-12-11 02:36:00,14.8,12.6,30.27,ESE,112,0.0,0.0,91,0.00,,CLR,0.00,0.00,VWS V14.01,2013-12-11 08:36:00,
2013-12-11 02:40:00,14.7,12.6,30.27,ESE,112,0.0,0.0,91,0.00,,CLR,0.00,0.00,VWS V14.01,2013-12-11 08:40:00,
2013-12-11 02:41:00,14.7,12.3,30.27,ESE,112,0.0,0.0,90,0.00,,CLR,0.00,0.00,VWS V14.01,2013-12-11 08:41:00,
2013-12-11 02:45:00,14.6,12.2,30.28,ESE,112,0.0,1.0,90,0.00,,CLR,0.00,0.00,VWS V14.01,2013-12-11 08:45:00,
2013-12-11 02:46:00,14.6,12.2,30.28,ESE,112,0.0,0.0,90,0.00,,CLR,0.00,0.00,VWS V14.01,2013-12-11 08:46:00,
2013-12-11 02:50:00,14.5,11.9,30.28,ESE,112,0.0,1.0,89,0.00,,CLR,0.00,0.00,VWS V14.01,2013-12-11 08:50:00,
2013-12-11 02:51:00,14.5,11.9,30.28,ESE,112,0.0,0.0,89,0.00,,CLR,0.00,0.00,VWS V14.01,2013-12-11 08:51:00,
2013-12-11 02:55:00,14.2,11.6,30.28,ESE,112,0.0,0.0,89,0.00,,CLR,0.00,0.00,VWS V14.01,2013-12-11 08:55:00,
2013-12-11 02:56:00,14.2,11.6,30.28,ESE,112,0.0,0.0,89,0.00,,CLR,0.00,0.00,VWS V14.01,2013-12-11 08:56:00,
2013-12-11 03:00:00,14.2,11.8,30.28,ESE,112,0.0,1.0,90,0.00,,CLR,0.00,0.00,VWS V14.01,2013-12-11 09:00:00,
2013-12-11 03:01:00,14.2,11.8,30.28,ESE,112,1.0,1.0,90,0.00,,CLR,0.00,0.00,VWS V14.01,2013-12-11 09:01:00,
2013-12-11 03:05:00,14.2,11.8,30.28,ENE,57,0.0,3.0,90,0.00,,CLR,0.00,0.00,VWS V14.01,2013-12-11 09:05:00,
2013-12-11 03:06:00,14.2,11.8,30.28,ENE,57,2.0,2.0,90,0.00,,CLR,0.00,0.00,VWS V14.01,2013-12-11 09:06:00,
2013-12-11 03:10:00,14.0,11.6,30.28,ENE,57,0.0,2.0,90,0.00,,CLR,0.00,0.00,VWS V14.01,2013-12-11 09:10:00,
2013-12-11 03:11:00,14.1,11.5,30.28,ENE,57,0.0,0.0,89,0.00,,CLR,0.00,0.00,VWS V14.01,2013-12-11 09:11:00,
2013-12-11 03:15:00,13.8,11.2,30.29,ENE,57,0.0,0.0,89,0.00,,CLR,0.00,0.00,VWS V14.01,2013-12-11 09:15:00,
2013-12-11 03:16:00,13.8,11.2,30.29,ENE,57,0.0,0.0,89,0.00,,CLR,0.00,0.00,VWS V14.01,2013-12-11 09:16:00,
2013-12-11 03:25:00,13.6,11.0,30.29,ENE,57,1.0,1.0,89,0.00,,CLR,0.00,0.00,VWS V14.01,2013-12-11 09:25:00,
2013-12-11 03:26:00,13.6,11.0,30.29,ENE,57,1.0,1.0,89,0.00,,CLR,0.00,0.00,VWS V14.01,2013-12-11 09:26:00,
2013-12-11 03:30:00,13.8,11.7,30.31,ENE,57,0.0,2.0,91,0.00,,CLR,0.00,0.00,VWS V14.01,2013-12-11 09:30:00,
2013-12-11 03:31:00,13.8,11.7,30.31,ENE,57,0.0,2.0,91,0.00,,CLR,0.00,0.00,VWS V14.01,2013-12-11 09:31:00,
2013-12-11 03:35:00,14.3,12.2,30.31,ENE,57,0.0,2.0,91,0.00,,CLR,0.00,0.00,VWS V14.01,2013-12-11 09:35:00,
2013-12-11 03:36:00,14.3,12.2,30.31,ENE,57,0.0,2.0,91,0.00,,CLR,0.00,0.00,VWS V14.01,2013-12-11 09:36:00,
2013-12-11 03:40:00,15.0,13.4,30.31,ENE,57,0.0,0.0,93,0.00,,CLR,0.00,0.00,VWS V14.01,2013-12-11 09:40:00,
2013-12-11 03:41:00,15.1,13.4,30.31,ENE,57,0.0,0.0,93,0.00,,CLR,0.00,0.00,VWS V14.01,2013-12-11 09:41:00,
2013-12-11 03:45:00,16.0,14.6,30.30,ENE,57,0.0,0.0,94,0.00,,CLR,0.00,0.00,VWS V14.01,2013-12-11 09:45:00,
2013-12-11 03:46:00,16.1,14.7,30.30,ENE,57,0.0,1.0,94,0.00,,CLR,0.00,0.00,VWS V14.01,2013-12-11 09:46:00,
2013-12-11 03:50:00,17.1,15.7,30.30,ENE,57,0.0,1.0,94,0.00,,CLR,0.00,0.00,VWS V14.01,2013-12-11 09:50:00,
2013-12-11 03:51:00,17.2,15.8,30.30,ENE,57,0.0,0.0,94,0.00,,CLR,0.00,0.00,VWS V14.01,2013-12-11 09:51:00,
2013-12-11 03:55:00,17.9,16.2,30.30,ENE,57,0.0,0.0,93,0.00,,CLR,0.00,0.00,VWS V14.01,2013-12-11 09:55:00,
2013-12-11 03:56:00,18.0,16.3,30.30,ENE,57,0.0,0.0,93,0.00,,CLR,0.00,0.00,VWS V14.01,2013-12-11 09:56:00,
2013-12-11 04:00:00,17.9,16.0,30.30,ENE,57,0.0,0.0,92,0.00,,CLR,0.00,0.00,VWS V14.01,2013-12-11 10:00:00,
2013-12-11 04:01:00,17.9,15.7,30.30,ENE,57,0.0,0.0,91,0.00,,CLR,0.00,0.00,VWS V14.01,2013-12-11 10:01:00,
2013-12-11 04:05:00,18.0,15.8,30.30,ENE,57,0.0,0.0,91,0.00,,CLR,0.00,0.00,VWS V14.01,2013-12-11 10:05:00,
2013-12-11 04:06:00,18.0,15.8,30.30,ENE,57,0.0,0.0,91,0.00,,CLR,0.00,0.00,VWS V14.01,2013-12-11 10:06:00,
2013-12-11 04:10:00,17.7,15.3,30.30,ENE,57,0.0,0.0,90,0.00,,CLR,0.00,0.00,VWS V14.01,2013-12-11 10:10:00,
2013-12-11 04:11:00,17.6,14.9,30.30,ENE,57,0.0,0.0,89,0.00,,CLR,0.00,0.00,VWS V14.01,2013-12-11 10:11:00,
2013-12-11 04:15:00,17.2,14.0,30.30,ENE,57,0.0,0.0,87,0.00,,CLR,0.00,0.00,VWS V14.01,2013-12-11 10:15:00,
2013-12-11 04:16:00,17.1,13.9,30.30,ENE,57,0.0,0.0,87,0.00,,CLR,0.00,0.00,VWS V14.01,2013-12-11 10:16:00,
2013-12-11 04:20:00,16.8,13.6,30.30,ENE,57,0.0,0.0,87,0.00,,CLR,0.00,0.00,VWS V14.01,2013-12-11 10:20:00,
2013-12-11 04:21:00,16.7,13.5,30.30,ENE,57,0.0,0.0,87,0.00,,CLR,0.00,0.00,VWS V14.01,2013-12-11 10:21:00,
2013-12-11 04:25:00,16.5,13.3,30.30,ENE,57,0.0,0.0,87,0.00,,CLR,0.00,0.00,VWS V14.01,2013-12-11 10:25:00,
2013-12-11 04:26:00,16.4,13.2,30.30,ENE,57,0.0,0.0,87,0.00,,CLR,0.00,0.00,VWS V14.01,2013-12-11 10:26:00,
2013-12-11 04:30:00,16.2,13.0,30.30,ENE,57,0.0,0.0,87,0.00,,CLR,0.00,0.00,VWS V14.01,2013-12-11 10:30:00,
2013-12-11 04:31:00,16.2,13.0,30.30,ENE,57,0.0,0.0,87,0.00,,CLR,0.00,0.00,VWS V14.01,2013-12-11 10:31:00,
2013-12-11 04:35:00,15.9,12.7,30.30,ENE,57,0.0,0.0,87,0.00,,CLR,0.00,0.00,VWS V14.01,2013-12-11 10:35:00,
2013-12-11 04:36:00,15.8,12.4,30.30,ENE,57,0.0,0.0,86,0.00,,CLR,0.00,0.00,VWS V14.01,2013-12-11 10:36:00,
2013-12-11 04:40:00,15.3,11.6,30.30,ENE,57,0.0,0.0,85,0.00,,CLR,0.00,0.00,VWS V14.01,2013-12-11 10:40:00,
2013-12-11 04:41:00,15.2,11.5,30.30,ENE,57,0.0,0.0,85,0.00,,CLR,0.00,0.00,VWS V14.01,2013-12-11 10:41:00,
2013-12-11 04:45:00,14.6,10.6,30.30,ENE,57,0.0,0.0,84,0.00,,CLR,0.00,0.00,VWS V14.01,2013-12-11 10:45:00,
2013-12-11 04:47:00,14.5,10.6,30.30,ENE,57,0.0,0.0,84,0.00,,CLR,0.00,0.00,VWS V14.01,2013-12-11 10:47:00,
2013-12-11 04:50:00,14.0,9.8,30.30,ENE,57,0.0,0.0,83,0.00,,CLR,0.00,0.00,VWS V14.01,2013-12-11 10:50:00,
2013-12-11 04:52:00,13.9,9.7,30.30,ENE,57,0.0,0.0,83,0.00,,CLR,0.00,0.00,VWS V14.01,2013-12-11 10:52:00,
2013-12-11 04:55:00,13.4,9.2,30.30,ENE,57,0.0,0.0,83,0.00,,CLR,0.00,0.00,VWS V14.01,2013-12-11 10:55:00,
2013-12-11 04:57:00,13.4,9.2,30.30,ENE,57,0.0,0.0,83,0.00,,CLR,0.00,0.00,VWS V14.01,2013-12-11 10:57:00,
2013-12-11 05:00:00,13.0,9.1,30.31,ENE,57,0.0,0.0,84,0.00,,CLR,0.00,0.00,VWS V14.01,2013-12-11 11:00:00,
2013-12-11 05:02:00,13.0,9.1,30.31,ENE,57,0.0,0.0,84,0.00,,CLR,0.00,0.00,VWS V14.01,2013-12-11 11:02:00,
2013-12-11 05:05:00,12.7,8.8,30.31,ENE,57,0.0,0.0,84,0.00,,CLR,0.00,0.00,VWS V14.01,2013-12-11 11:05:00,
2013-12-11 05:07:00,12.6,8.7,30.31,ENE,57,0.0,0.0,84,0.00,,CLR,0.00,0.00,VWS V14.01,2013-12-11 11:07:00,
2013-12-11 05:10:00,12.5,9.1,30.31,ENE,57,0.0,0.0,86,0.00,,CLR,0.00,0.00,VWS V14.01,2013-12-11 11:10:00,
2013-12-11 05:12:00,12.5,9.1,30.31,ENE,57,0.0,0.0,86,0.00,,CLR,0.00,0.00,VWS V14.01,2013-12-11 11:12:00,
2013-12-11 05:15:00,12.3,9.2,30.32,ENE,57,0.0,1.0,87,0.00,,CLR,0.00,0.00,VWS V14.01,2013-12-11 11:15:00,
2013-12-11 05:17:00,12.3,9.4,30.32,ENE,57,0.0,0.0,88,0.00,,CLR,0.00,0.00,VWS V14.01,2013-12-11 11:17:00,
2013-12-11 05:20:00,12.5,10.1,30.32,ENE,57,0.0,0.0,90,0.00,,CLR,0.00,0.00,VWS V14.01,2013-12-11 11:20:00,
2013-12-11 05:22:00,12.6,10.2,30.32,ENE,57,0.0,0.0,90,0.00,,CLR,0.00,0.00,VWS V14.01,2013-12-11 11:22:00,
2013-12-11 05:25:00,12.8,10.7,30.32,ENE,57,0.0,0.0,91,0.00,,CLR,0.00,0.00,VWS V14.01,2013-12-11 11:25:00,
2013-12-11 05:27:00,12.9,10.8,30.32,ENE,57,0.0,0.0,91,0.00,,CLR,0.00,0.00,VWS V14.01,2013-12-11 11:27:00,
2013-12-11 05:30:00,13.0,11.1,30.32,ENE,57,0.0,0.0,92,0.00,,CLR,0.00,0.00,VWS V14.01,2013-12-11 11:30:00,
2013-12-11 05:32:00,13.1,11.2,30.32,ENE,57,0.0,0.0,92,0.00,,CLR,0.00,0.00,VWS V14.01,2013-12-11 11:32:00,
2013-12-11 05:35:00,13.4,11.5,30.32,ENE,57,1.0,1.0,92,0.00,,CLR,0.00,0.00,VWS V14.01,2013-12-11 11:35:00,
2013-12-11 05:37:00,13.4,11.5,30.32,ENE,57,0.0,1.0,92,0.00,,CLR,0.00,0.00,VWS V14.01,2013-12-11 11:37:00,
2013-12-11 05:40:00,13.5,11.6,30.32,ENE,57,0.0,1.0,92,0.00,,CLR,0.00,0.00,VWS V14.01,2013-12-11 11:40:00,
2013-12-11 05:42:00,13.6,11.7,30.32,ENE,57,0.0,0.0,92,0.00,,CLR,0.00,0.00,VWS V14.01,2013-12-11 11:42:00,
2013-12-11 05:45:00,13.7,11.8,30.33,ENE,57,0.0,0.0,92,0.00,,CLR,0.00,0.00,VWS V14.01,2013-12-11 11:45:00,
2013-12-11 05:47:00,13.7,11.8,30.33,ENE,57,0.0,0.0,92,0.00,,CLR,0.00,0.00,VWS V14.01,2013-12-11 11:47:00,
2013-12-11 05:50:00,14.0,12.4,30.33,ENE,57,0.0,0.0,93,0.00,,CLR,0.00,0.00,VWS V14.01,2013-12-11 11:50:00,
2013-12-11 05:52:00,14.0,12.4,30.33,ENE,57,0.0,0.0,93,0.00,,CLR,0.00,0.00,VWS V14.01,2013-12-11 11:52:00,
2013-12-11 05:55:00,14.2,12.6,30.33,ENE,57,0.0,0.0,93,0.00,,CLR,0.00,0.00,VWS V14.01,2013-12-11 11:55:00,
2013-12-11 05:57:00,14.2,12.6,30.33,ENE,57,0.0,0.0,93,0.00,,CLR,0.00,0.00,VWS V14.01,2013-12-11 11:57:00,
2013-12-11 06:00:00,14.3,12.6,30.34,ENE,57,0.0,0.0,93,0.00,,CLR,0.00,0.00,VWS V14.01,2013-12-11 12:00:00,
2013-12-11 06:02:00,14.3,12.6,30.34,ENE,57,0.0,1.0,93,0.00,,CLR,0.00,0.00,VWS V14.01,2013-12-11 12:02:00,
2013-12-11 06:05:00,14.1,12.2,30.34,ENE,57,0.0,1.0,92,0.00,,CLR,0.00,0.00,VWS V14.01,2013-12-11 12:05:00,
2013-12-11 06:07:00,14.0,11.9,30.34,ENE,57,0.0,0.0,91,0.00,,CLR,0.00,0.00,VWS V14.01,2013-12-11 12:07:00,
2013-12-11 06:10:00,13.9,11.8,30.34,ENE,57,0.0,0.0,91,0.00,,CLR,0.00,0.00,VWS V14.01,2013-12-11 12:10:00,
2013-12-11 06:12:00,13.7,11.3,30.34,ENE,57,0.0,0.0,90,0.00,,CLR,0.00,0.00,VWS V14.01,2013-12-11 12:12:00,
2013-12-11 06:15:00,13.4,11.0,30.35,ENE,57,0.0,1.0,90,0.00,,CLR,0.00,0.00,VWS V14.01,2013-12-11 12:15:00,
2013-12-11 06:17:00,13.2,10.6,30.35,ENE,57,1.0,2.0,89,0.00,,CLR,0.00,0.00,VWS V14.01,2013-12-11 12:17:00,
2013-12-11 06:20:00,13.0,10.4,30.35,ENE,57,0.0,2.0,89,0.00,,CLR,0.00,0.00,VWS V14.01,2013-12-11 12:20:00,
2013-12-11 06:22:00,12.8,9.9,30.35,ENE,57,0.0,2.0,88,0.00,,CLR,0.00,0.00,VWS V14.01,2013-12-11 12:22:00,
2013-12-11 06:25:00,12.5,9.6,30.35,ENE,57,0.0,2.0,88,0.00,,CLR,0.00,0.00,VWS V14.01,2013-12-11 12:25:00,
2013-12-11 06:27:00,12.4,9.8,30.35,ENE,57,0.0,1.0,89,0.00,,CLR,0.00,0.00,VWS V14.01,2013-12-11 12:27:00,
2013-12-11 06:30:00,12.2,9.3,30.36,ENE,57,0.0,1.0,88,0.00,,CLR,0.00,0.00,VWS V14.01,2013-12-11 12:30:00,
2013-12-11 06:32:00,12.1,9.2,30.36,ENE,57,0.0,0.0,88,0.00,,CLR,0.00,0.00,VWS V14.01,2013-12-11 12:32:00,
2013-12-11 06:35:00,12.0,9.1,30.36,ENE,57,0.0,0.0,88,0.00,,CLR,0.00,0.00,VWS V14.01,2013-12-11 12:35:00,
2013-12-11 06:37:00,11.9,9.0,30.36,ENE,57,0.0,0.0,88,0.00,,CLR,0.00,0.00,VWS V14.01,2013-12-11 12:37:00,
2013-12-11 06:40:00,11.8,8.9,30.36,ENE,57,0.0,0.0,88,0.00,,CLR,0.00,0.00,VWS V14.01,2013-12-11 12:40:00,
2013-12-11 06:42:00,11.7,8.8,30.36,ENE,57,0.0,0.0,88,0.00,,CLR,0.00,0.00,VWS V14.01,2013-12-11 12:42:00,
2013-12-11 06:45:00,11.5,8.6,30.36,ENE,57,0.0,0.0,88,0.00,,CLR,0.00,0.00,VWS V14.01,2013-12-11 12:45:00,
2013-12-11 06:47:00,11.3,8.4,30.36,ENE,57,0.0,0.0,88,0.00,,CLR,0.00,0.00,VWS V14.01,2013-12-11 12:47:00,
2013-12-11 06:50:00,11.2,8.4,30.36,ENE,57,0.0,0.0,88,0.00,,CLR,0.00,0.00,VWS V14.01,2013-12-11 12:50:00,
2013-12-11 06:52:00,11.1,8.2,30.36,ENE,57,0.0,0.0,88,0.00,,CLR,0.00,0.00,VWS V14.01,2013-12-11 12:52:00,
2013-12-11 06:55:00,10.9,8.1,30.36,ENE,57,0.0,0.0,88,0.00,,CLR,0.00,0.00,VWS V14.01,2013-12-11 12:55:00,
2013-12-11 06:57:00,10.8,7.9,30.36,ENE,57,0.0,0.0,88,0.00,,CLR,0.00,0.00,VWS V14.01,2013-12-11 12:57:00,
2013-12-11 07:00:00,10.7,7.8,30.37,ENE,57,0.0,0.0,88,0.00,,CLR,0.00,0.00,VWS V14.01,2013-12-11 13:00:00,
2013-12-11 07:02:00,10.6,7.8,30.37,ENE,57,0.0,0.0,88,0.00,,CLR,0.00,0.00,VWS V14.01,2013-12-11 13:02:00,
2013-12-11 07:05:00,10.5,7.7,30.37,ENE,57,0.0,0.0,88,0.00,,CLR,0.00,0.00,VWS V14.01,2013-12-11 13:05:00,
2013-12-11 07:07:00,10.5,7.7,30.37,ENE,57,0.0,0.0,88,0.00,,CLR,0.00,0.00,VWS V14.01,2013-12-11 13:07:00,
2013-12-11 07:10:00,10.3,7.5,30.37,ENE,57,0.0,0.0,88,0.00,,CLR,0.00,0.00,VWS V14.01,2013-12-11 13:10:00,
2013-12-11 07:12:00,10.3,7.5,30.37,ENE,57,0.0,0.0,88,0.00,,CLR,0.00,0.00,VWS V14.01,2013-12-11 13:12:00,
2013-12-11 07:15:00,10.1,7.3,30.38,ENE,57,0.0,0.0,88,0.00,,CLR,0.00,0.00,VWS V14.01,2013-12-11 13:15:00,
2013-12-11 07:17:00,10.1,7.3,30.38,ENE,57,0.0,0.0,88,0.00,,CLR,0.00,0.00,VWS V14.01,2013-12-11 13:17:00,
2013-12-11 07:20:00,10.0,7.2,30.38,ENE,57,0.0,0.0,88,0.00,,CLR,0.00,5.00,VWS V14.01,2013-12-11 13:20:00,
2013-12-11 07:22:00,10.0,7.2,30.38,ENE,57,0.0,0.0,88,0.00,,CLR,0.00,5.00,VWS V14.01,2013-12-11 13:22:00,
2013-12-11 07:25:00,9.9,7.3,30.38,ENE,57,0.0,0.0,89,0.00,,CLR,0.00,7.00,VWS V14.01,2013-12-11 13:25:00,
2013-12-11 07:27:00,9.9,7.3,30.38,ENE,57,0.0,0.0,89,0.00,,CLR,0.00,9.00,VWS V14.01,2013-12-11 13:27:00,
2013-12-11 07:30:00,9.9,7.3,30.39,ENE,57,0.0,0.0,89,0.00,,CLR,0.00,9.00,VWS V14.01,2013-12-11 13:30:00,
2013-12-11 07:32:00,9.8,7.2,30.39,ENE,57,0.0,0.0,89,0.00,,CLR,0.00,11.00,VWS V14.01,2013-12-11 13:32:00,
2013-12-11 07:35:00,9.8,7.2,30.39,ENE,57,0.0,0.0,89,0.00,,CLR,0.00,12.00,VWS V14.01,2013-12-11 13:35:00,
2013-12-11 07:37:00,9.8,7.2,30.39,ENE,57,0.0,0.0,89,0.00,,CLR,0.00,12.00,VWS V14.01,2013-12-11 13:37:00,
2013-12-11 07:40:00,9.8,7.5,30.39,ENE,57,0.0,0.0,90,0.00,,CLR,0.00,14.00,VWS V14.01,2013-12-11 13:40:00,
2013-12-11 07:43:00,9.9,7.6,30.39,ENE,57,0.0,0.0,90,0.00,,CLR,0.00,16.00,VWS V14.01,2013-12-11 13:43:00,
2013-12-11 07:45:00,9.9,7.6,30.40,ENE,57,0.0,0.0,90,0.00,,CLR,0.00,18.00,VWS V14.01,2013-12-11 13:45:00,
2013-12-11 07:48:00,9.8,7.5,30.40,ENE,57,0.0,0.0,90,0.00,,CLR,0.00,19.00,VWS V14.01,2013-12-11 13:48:00,
2013-12-11 07:50:00,9.9,7.6,30.40,ENE,57,0.0,0.0,90,0.00,,CLR,0.00,21.00,VWS V14.01,2013-12-11 13:50:00,
2013-12-11 07:53:00,9.9,7.6,30.40,ENE,57,0.0,0.0,90,0.00,,CLR,0.00,21.00,VWS V14.01,2013-12-11 13:53:00,
2013-12-11 07:55:00,10.0,7.7,30.40,ENE,57,0.0,0.0,90,0.00,,CLR,0.00,23.00,VWS V14.01,2013-12-11 13:55:00,
2013-12-11 07:58:00,10.0,7.7,30.40,ENE,57,0.0,0.0,90,0.00,,CLR,0.00,23.00,VWS V14.01,2013-12-11 13:58:00,
2013-12-11 08:00:00,10.1,7.8,30.41,ENE,57,0.0,0.0,90,0.00,,CLR,0.00,25.00,VWS V14.01,2013-12-11 14:00:00,
2013-12-11 08:03:00,10.2,8.1,30.41,ENE,57,0.0,0.0,91,0.00,,,0.00,26.00,VWS V14.01,2013-12-11 14:03:00,
2013-12-11 08:05:00,10.3,8.2,30.41,ENE,57,0.0,0.0,91,0.00,,CLR,0.00,30.00,VWS V14.01,2013-12-11 14:05:00,
2013-12-11 08:08:00,10.3,8.2,30.41,ENE,57,0.0,0.0,91,0.00,,,0.00,30.00,VWS V14.01,2013-12-11 14:08:00,
2013-12-11 08:10:00,10.4,8.3,30.41,ENE,57,0.0,0.0,91,0.00,,CLR,0.00,28.00,VWS V14.01,2013-12-11 14:10:00,
2013-12-11 08:13:00,10.5,8.4,30.41,ENE,57,0.0,0.0,91,0.00,,,0.00,30.00,VWS V14.01,2013-12-11 14:13:00,
2013-12-11 08:15:00,10.6,8.5,30.42,ENE,57,0.0,0.0,91,0.00,,CLR,0.00,32.00,VWS V14.01,2013-12-11 14:15:00,
2013-12-11 08:18:00,10.7,8.8,30.42,ENE,57,0.0,0.0,92,0.00,,,0.00,33.00,VWS V14.01,2013-12-11 14:18:00,
2013-12-11 08:20:00,11.0,9.1,30.42,ENE,57,0.0,0.0,92,0.00,,CLR,0.00,39.00,VWS V14.01,2013-12-11 14:20:00,
2013-12-11 08:23:00,11.2,9.6,30.42,ENE,57,0.0,0.0,93,0.00,,,0.00,35.00,VWS V14.01,2013-12-11 14:23:00,
2013-12-11 08:25:00,11.5,9.9,30.42,ENE,57,0.0,0.0,93,0.00,,CLR,0.00,63.00,VWS V14.01,2013-12-11 14:25:00,
2013-12-11 08:28:00,11.9,10.3,30.42,ENE,57,0.0,0.0,93,0.00,,,0.00,88.00,VWS V14.01,2013-12-11 14:28:00,
2013-12-11 08:30:00,12.5,10.6,30.43,ENE,57,0.0,0.0,92,0.00,,CLR,0.00,139.00,VWS V14.01,2013-12-11 14:30:00,
2013-12-11 08:33:00,13.1,11.2,30.43,ENE,57,0.0,0.0,92,0.00,,,0.00,148.00,VWS V14.01,2013-12-11 14:33:00,
2013-12-11 08:35:00,14.3,12.4,30.43,ENE,57,0.0,0.0,92,0.00,,CLR,0.00,163.00,VWS V14.01,2013-12-11 14:35:00,
2013-12-11 08:38:00,16.3,14.9,30.43,ENE,57,0.0,0.0,94,0.00,,,0.00,163.00,VWS V14.01,2013-12-11 14:38:00,
2013-12-11 08:40:00,18.0,16.6,30.43,ENE,57,0.0,2.0,94,0.00,,CLR,0.00,172.00,VWS V14.01,2013-12-11 14:40:00,
2013-12-11 08:43:00,18.8,17.4,30.43,ENE,57,0.0,0.0,94,0.00,,,0.00,176.00,VWS V14.01,2013-12-11 14:43:00,
2013-12-11 08:45:00,19.4,17.7,30.44,ENE,57,0.0,0.0,93,0.00,,CLR,0.00,183.00,VWS V14.01,2013-12-11 14:45:00,
2013-12-11 08:48:00,19.9,18.0,30.44,ENE,57,0.0,0.0,92,0.00,,,0.00,186.00,VWS V14.01,2013-12-11 14:48:00,
2013-12-11 08:50:00,20.1,17.9,30.44,ENE,57,0.0,0.0,91,0.00,,CLR,0.00,190.00,VWS V14.01,2013-12-11 14:50:00,
2013-12-11 08:53:00,19.9,17.5,30.44,ENE,57,0.0,0.0,90,0.00,,,0.00,199.00,VWS V14.01,2013-12-11 14:53:00,
2013-12-11 08:55:00,19.7,17.0,30.44,ENE,57,0.0,0.0,89,0.00,,CLR,0.00,202.00,VWS V14.01,2013-12-11 14:55:00,
2013-12-11 08:58:00,19.8,16.8,30.44,ENE,57,0.0,0.0,88,0.00,,,0.00,207.00,VWS V14.01,2013-12-11 14:58:00,
2013-12-11 09:00:00,20.2,17.5,30.44,ENE,57,0.0,0.0,89,0.00,,CLR,0.00,211.00,VWS V14.01,2013-12-11 15:00:00,
2013-12-11 09:03:00,20.7,18.0,30.44,ENE,57,0.0,0.0,89,0.00,,CLR,0.00,216.00,VWS V14.01,2013-12-11 15:03:00,
2013-12-11 09:05:00,21.0,18.3,30.44,ENE,57,0.0,0.0,89,0.00,,CLR,0.00,216.00,VWS V14.01,2013-12-11 15:05:00,
2013-12-11 09:08:00,21.0,18.0,30.44,NE,34,0.0,0.0,88,0.00,,CLR,0.00,211.00,VWS V14.01,2013-12-11 15:08:00,
2013-12-11 09:10:00,21.2,18.2,30.44,NE,34,0.0,0.0,88,0.00,,CLR,0.00,236.00,VWS V14.01,2013-12-11 15:10:00,
2013-12-11 09:13:00,21.1,17.8,30.44,NE,34,0.0,0.0,87,0.00,,CLR,0.00,236.00,VWS V14.01,2013-12-11 15:13:00,
2013-12-11 09:15:00,20.8,17.3,30.45,NE,34,0.0,0.0,86,0.00,,CLR,0.00,225.00,VWS V14.01,2013-12-11 15:15:00,
2013-12-11 09:18:00,21.1,17.6,30.45,NE,34,0.0,1.0,86,0.00,,CLR,0.00,181.00,VWS V14.01,2013-12-11 15:18:00,
2013-12-11 09:20:00,21.3,17.8,30.45,NE,34,0.0,1.0,86,0.00,,CLR,0.00,236.00,VWS V14.01,2013-12-11 15:20:00,
2013-12-11 09:23:00,21.2,17.4,30.45,NE,34,0.0,0.0,85,0.00,,CLR,0.00,146.00,VWS V14.01,2013-12-11 15:23:00,
2013-12-11 09:25:00,22.0,18.5,30.45,NW,323,0.0,1.0,86,0.00,,CLR,0.00,239.00,VWS V14.01,2013-12-11 15:25:00,
2013-12-11 09:28:00,23.5,20.2,30.45,WNW,297,1.0,3.0,87,0.00,,CLR,0.00,265.00,VWS V14.01,2013-12-11 15:28:00,
2013-12-11 09:30:00,24.3,20.7,30.46,WNW,298,0.0,3.0,86,0.00,,CLR,0.00,278.00,VWS V14.01,2013-12-11 15:30:00,
2013-12-11 09:33:00,24.6,20.7,30.46,WNW,285,3.0,4.0,85,0.00,,CLR,0.00,244.00,VWS V14.01,2013-12-11 15:33:00,
2013-12-11 09:35:00,24.9,20.8,30.46,WNW,290,2.0,4.0,84,0.00,,CLR,0.00,269.00,VWS V14.01,2013-12-11 15:35:00,
2013-12-11 09:38:00,24.9,20.8,30.46,WNW,290,0.0,2.0,84,0.00,,CLR,0.00,295.00,VWS V14.01,2013-12-11 15:38:00,
2013-12-11 09:40:00,25.1,21.0,30.46,NNE,18,0.0,3.0,84,0.00,,CLR,0.00,294.00,VWS V14.01,2013-12-11 15:40:00,
2013-12-11 09:43:00,25.7,21.5,30.46,North,349,1.0,2.0,84,0.00,,CLR,0.00,302.00,VWS V14.01,2013-12-11 15:43:00,
2013-12-11 09:45:00,26.3,22.1,30.47,North,351,2.0,4.0,84,0.00,,CLR,0.00,302.00,VWS V14.01,2013-12-11 15:45:00,
2013-12-11 09:48:00,26.6,22.1,30.47,NE,35,0.0,2.0,83,0.00,,CLR,0.00,308.00,VWS V14.01,2013-12-11 15:48:00,
2013-12-11 09:50:00,26.9,22.4,30.47,NNE,12,1.0,3.0,83,0.00,,CLR,0.00,308.00,VWS V14.01,2013-12-11 15:50:00,
2013-12-11 09:53:00,27.0,22.2,30.47,North,5,0.0,4.0,82,0.00,,CLR,0.00,343.00,VWS V14.01,2013-12-11 15:53:00,
2013-12-11 09:55:00,27.1,22.4,30.47,NNW,337,0.0,4.0,82,0.00,,CLR,0.00,343.00,VWS V14.01,2013-12-11 15:55:00,
2013-12-11 09:58:00,27.3,22.2,30.47,NNW,337,0.0,5.0,81,0.00,,CLR,0.00,348.00,VWS V14.01,2013-12-11 15:58:00,
2013-12-11 10:00:00,27.4,22.4,30.48,NNE,29,0.0,5.0,81,0.00,,CLR,0.00,350.00,VWS V14.01,2013-12-11 16:00:00,
2013-12-11 10:03:00,27.4,22.4,30.48,NNW,329,0.0,3.0,81,0.00,,CLR,0.00,357.00,VWS V14.01,2013-12-11 16:03:00,
2013-12-11 10:05:00,27.6,22.5,30.48,NNW,330,0.0,3.0,81,0.00,,CLR,0.00,355.00,VWS V14.01,2013-12-11 16:05:00,
2013-12-11 10:08:00,27.9,22.5,30.48,NNW,333,0.0,3.0,80,0.00,,CLR,0.00,360.00,VWS V14.01,2013-12-11 16:08:00,
2013-12-11 10:10:00,27.9,22.5,30.48,NNE,21,0.0,3.0,80,0.00,,CLR,0.00,364.00,VWS V14.01,2013-12-11 16:10:00,
2013-12-11 10:13:00,28.0,22.6,30.48,North,5,2.0,6.0,80,0.00,,CLR,0.00,371.00,VWS V14.01,2013-12-11 16:13:00,
2013-12-11 10:15:00,28.0,22.3,30.49,NNE,21,1.0,6.0,79,0.00,,CLR,0.00,373.00,VWS V14.01,2013-12-11 16:15:00,
2013-12-11 10:18:00,28.2,22.8,30.49,North,360,0.0,3.0,80,0.00,,FEW006,0.00,380.00,VWS V14.01,2013-12-11 16:18:00,
2013-12-11 10:20:00,28.2,22.5,30.49,North,5,5.0,7.0,79,0.00,,CLR,0.00,373.00,VWS V14.01,2013-12-11 16:20:00,
2013-12-11 10:23:00,28.1,22.4,30.49,NNE,19,0.0,5.0,79,0.00,,FEW006,0.00,378.00,VWS V14.01,2013-12-11 16:23:00,
2013-12-11 10:25:00,28.3,22.6,30.49,North,355,0.0,5.0,79,0.00,,CLR,0.00,394.00,VWS V14.01,2013-12-11 16:25:00,
2013-12-11 10:28:00,28.4,22.4,30.49,NE,34,0.0,4.0,78,0.00,,FEW006,0.00,388.00,VWS V14.01,2013-12-11 16:28:00,
2013-12-11 10:30:00,28.3,22.6,30.49,NNW,344,0.0,4.0,79,0.00,,CLR,0.00,394.00,VWS V14.01,2013-12-11 16:30:00,
2013-12-11 10:33:00,28.5,22.5,30.49,North,5,2.0,6.0,78,0.00,,FEW006,0.00,403.00,VWS V14.01,2013-12-11 16:33:00,
2013-12-11 10:35:00,28.4,22.4,30.49,North,350,1.0,6.0,78,0.00,,CLR,0.00,403.00,VWS V14.01,2013-12-11 16:35:00,
2013-12-11 10:39:00,28.5,22.5,30.49,North,355,1.0,5.0,78,0.00,,FEW006,0.00,406.00,VWS V14.01,2013-12-11 16:39:00,
2013-12-11 10:40:00,28.5,22.5,30.49,North,5,4.0,5.0,78,0.00,,CLR,0.00,411.00,VWS V14.01,2013-12-11 16:40:00,
2013-12-11 10:44:00,28.8,22.8,30.49,NNE,30,2.0,5.0,78,0.00,,FEW006,0.00,415.00,VWS V14.01,2013-12-11 16:44:00,
2013-12-11 10:45:00,28.8,22.8,30.49,NNE,30,1.0,5.0,78,0.00,,CLR,0.00,413.00,VWS V14.01,2013-12-11 16:45:00,
2013-12-11 10:49:00,29.2,23.2,30.49,NNW,335,2.0,3.0,78,0.00,,FEW006,0.00,424.00,VWS V14.01,2013-12-11 16:49:00,
2013-12-11 10:50:00,29.2,22.9,30.49,NNE,15,0.0,5.0,77,0.00,,CLR,0.00,427.00,VWS V14.01,2013-12-11 16:50:00,
2013-12-11 10:54:00,29.4,23.4,30.49,NNW,346,0.0,5.0,78,0.00,,FEW006,0.00,431.00,VWS V14.01,2013-12-11 16:54:00,
2013-12-11 10:55:00,29.6,23.3,30.49,NE,42,2.0,6.0,77,0.00,,CLR,0.00,432.00,VWS V14.01,2013-12-11 16:55:00,
2013-12-11 10:59:00,29.7,23.4,30.49,NNE,14,4.0,6.0,77,0.00,,FEW006,0.00,432.00,VWS V14.01,2013-12-11 16:59:00,
2013-12-11 11:00:00,29.7,23.4,30.49,NNE,14,0.0,6.0,77,0.00,,CLR,0.00,436.00,VWS V14.01,2013-12-11 17:00:00,
2013-12-11 11:04:00,30.0,23.7,30.49,NNE,19,0.0,3.0,77,0.00,,CLR,0.00,436.00,VWS V14.01,2013-12-11 17:04:00,
2013-12-11 11:05:00,30.1,23.5,30.49,ENE,66,3.0,3.0,76,0.00,,CLR,0.00,436.00,VWS V14.01,2013-12-11 17:05:00,
2013-12-11 11:09:00,29.9,23.3,30.49,NE,38,1.0,5.0,76,0.00,,CLR,0.00,441.00,VWS V14.01,2013-12-11 17:09:00,
2013-12-11 11:10:00,30.1,23.8,30.49,NE,38,0.0,5.0,77,0.00,,CLR,0.00,450.00,VWS V14.01,2013-12-11 17:10:00,
2013-12-11 11:14:00,30.2,23.6,30.49,NE,38,1.0,2.0,76,0.00,,CLR,0.00,452.00,VWS V14.01,2013-12-11 17:14:00,
2013-12-11 11:15:00,30.3,23.7,30.49,NNE,13,2.0,6.0,76,0.00,,CLR,0.00,455.00,VWS V14.01,2013-12-11 17:15:00,
2013-12-11 11:19:00,30.5,23.9,30.49,North,355,0.0,5.0,76,0.00,,CLR,0.00,455.00,VWS V14.01,2013-12-11 17:19:00,
2013-12-11 11:20:00,30.5,23.9,30.49,North,360,1.0,5.0,76,0.00,,CLR,0.00,462.00,VWS V14.01,2013-12-11 17:20:00,
2013-12-11 11:24:00,30.6,23.6,30.49,NNW,346,1.0,6.0,75,0.00,,CLR,0.00,459.00,VWS V14.01,2013-12-11 17:24:00,
2013-12-11 11:25:00,30.7,23.7,30.49,NE,36,1.0,6.0,75,0.00,,CLR,0.00,462.00,VWS V14.01,2013-12-11 17:25:00,
2013-12-11 11:29:00,31.0,24.0,30.49,NNE,32,0.0,4.0,75,0.00,,CLR,0.00,461.00,VWS V14.01,2013-12-11 17:29:00,
2013-12-11 11:30:00,31.1,24.1,30.49,North,9,1.0,4.0,75,0.00,,CLR,0.00,461.00,VWS V14.01,2013-12-11 17:30:00,
2013-12-11 11:34:00,31.1,24.1,30.49,North,11,1.0,4.0,75,0.00,,CLR,0.00,464.00,VWS V14.01,2013-12-11 17:34:00,
2013-12-11 11:35:00,31.2,23.9,30.49,North,11,0.0,4.0,74,0.00,,CLR,0.00,462.00,VWS V14.01,2013-12-11 17:35:00,
2013-12-11 11:39:00,31.5,24.2,30.49,NNE,20,2.0,7.0,74,0.00,,CLR,0.00,464.00,VWS V14.01,2013-12-11 17:39:00,
2013-12-11 11:40:00,31.3,24.0,30.49,NNW,336,1.0,7.0,74,0.00,,CLR,0.00,464.00,VWS V14.01,2013-12-11 17:40:00,
2013-12-11 11:44:00,31.2,23.9,30.49,NW,312,1.0,4.0,74,0.00,,CLR,0.00,469.00,VWS V14.01,2013-12-11 17:44:00,
2013-12-11 11:45:00,31.2,23.9,30.48,NNW,336,2.0,4.0,74,0.00,,CLR,0.00,473.00,VWS V14.01,2013-12-11 17:45:00,
2013-12-11 11:49:00,31.4,24.1,30.48,North,360,0.0,2.0,74,0.00,,CLR,0.00,471.00,VWS V14.01,2013-12-11 17:49:00,
2013-12-11 11:50:00,31.4,24.1,30.48,North,360,1.0,2.0,74,0.00,,CLR,0.00,471.00,VWS V14.01,2013-12-11 17:50:00,
2013-12-11 11:54:00,31.6,24.3,30.48,NW,318,0.0,2.0,74,0.00,,CLR,0.00,471.00,VWS V14.01,2013-12-11 17:54:00,
2013-12-11 11:55:00,31.7,24.4,30.48,NW,318,1.0,2.0,74,0.00,,CLR,0.00,475.00,VWS V14.01,2013-12-11 17:55:00,
2013-12-11 11:59:00,31.7,24.4,30.48,North,5,1.0,4.0,74,0.00,,CLR,0.00,473.00,VWS V14.01,2013-12-11 17:59:00,
2013-12-11 12:00:00,31.7,24.0,30.48,North,5,2.0,4.0,73,0.00,,CLR,0.00,473.00,VWS V14.01,2013-12-11 18:00:00,
2013-12-11 12:04:00,32.0,24.3,30.48,North,9,2.0,3.0,73,0.00,,CLR,0.00,469.00,VWS V14.01,2013-12-11 18:04:00,
2013-12-11 12:05:00,32.0,24.3,30.48,North,10,3.0,5.0,73,0.00,,CLR,0.00,469.00,VWS V14.01,2013-12-11 18:05:00,
2013-12-11 12:09:00,31.9,24.2,30.48,NE,52,3.0,4.0,73,0.00,,CLR,0.00,471.00,VWS V14.01,2013-12-11 18:09:00,
2013-12-11 12:10:00,31.9,23.9,30.48,NW,313,3.0,5.0,72,0.00,,CLR,0.00,473.00,VWS V14.01,2013-12-11 18:10:00,
2013-12-11 12:14:00,31.9,24.2,30.48,NE,53,0.0,4.0,73,0.00,,CLR,0.00,471.00,VWS V14.01,2013-12-11 18:14:00,
2013-12-11 12:15:00,32.0,24.3,30.47,North,355,0.0,4.0,73,0.00,,CLR,0.00,468.00,VWS V14.01,2013-12-11 18:15:00,
2013-12-11 12:19:00,32.4,24.4,30.47,WNW,298,1.0,3.0,72,0.00,,CLR,0.00,473.00,VWS V14.01,2013-12-11 18:19:00,
2013-12-11 12:20:00,32.3,24.0,30.47,WNW,300,0.0,3.0,71,0.00,,CLR,0.00,475.00,VWS V14.01,2013-12-11 18:20:00,
2013-12-11 12:24:00,32.6,24.2,30.47,NNW,347,0.0,3.0,71,0.00,,CLR,0.00,469.00,VWS V14.01,2013-12-11 18:24:00,
2013-12-11 12:25:00,32.6,24.2,30.47,NNW,347,0.0,3.0,71,0.00,,CLR,0.00,469.00,VWS V14.01,2013-12-11 18:25:00,
2013-12-11 12:29:00,32.8,24.5,30.47,North,355,0.0,5.0,71,0.00,,CLR,0.00,469.00,VWS V14.01,2013-12-11 18:29:00,
2013-12-11 12:30:00,32.8,24.5,30.47,NNE,16,4.0,5.0,71,0.00,,CLR,0.00,473.00,VWS V14.01,2013-12-11 18:30:00,
2013-12-11 12:34:00,32.5,24.2,30.47,NE,43,0.0,5.0,71,0.00,,CLR,0.00,469.00,VWS V14.01,2013-12-11 18:34:00,
2013-12-11 12:35:00,32.6,24.2,30.47,NNE,21,0.0,5.0,71,0.00,,CLR,0.00,469.00,VWS V14.01,2013-12-11 18:35:00,
2013-12-11 12:39:00,33.0,24.3,30.47,NW,322,0.0,4.0,70,0.00,,CLR,0.00,468.00,VWS V14.01,2013-12-11 18:39:00,
2013-12-11 12:40:00,33.0,24.3,30.47,NNW,344,1.0,4.0,70,0.00,,CLR,0.00,468.00,VWS V14.01,2013-12-11 18:40:00,
2013-12-11 12:44:00,33.2,24.5,30.47,North,355,3.0,5.0,70,0.00,,CLR,0.00,466.00,VWS V14.01,2013-12-11 18:44:00,
2013-12-11 12:45:00,33.2,24.5,30.46,North,355,3.0,5.0,70,0.00,,CLR,0.00,469.00,VWS V14.01,2013-12-11 18:45:00,
2013-12-11 12:49:00,33.2,24.8,30.46,North,10,0.0,3.0,71,0.00,,CLR,0.00,466.00,VWS V14.01,2013-12-11 18:49:00,
2013-12-11 12:50:00,33.4,25.0,30.46,North,360,0.0,3.0,71,0.00,,CLR,0.00,466.00,VWS V14.01,2013-12-11 18:50:00,
2013-12-11 12:54:00,33.7,24.3,30.46,North,360,1.0,2.0,68,0.00,,CLR,0.00,461.00,VWS V14.01,2013-12-11 18:54:00,
2013-12-11 12:55:00,33.7,24.6,30.46,NNW,345,3.0,5.0,69,0.00,,CLR,0.00,459.00,VWS V14.01,2013-12-11 18:55:00,
2013-12-11 12:59:00,33.8,24.4,30.46,NNW,336,0.0,3.0,68,0.00,,CLR,0.00,452.00,VWS V14.01,2013-12-11 18:59:00,
2013-12-11 13:00:00,33.9,24.8,30.46,North,360,0.0,3.0,69,0.00,,CLR,0.00,450.00,VWS V14.01,2013-12-11 19:00:00,
2013-12-11 13:04:00,34.1,24.0,30.46,North,5,1.0,4.0,66,0.00,,CLR,0.00,450.00,VWS V14.01,2013-12-11 19:04:00,
2013-12-11 13:05:00,34.1,24.0,30.46,NNE,17,3.0,4.0,66,0.00,,CLR,0.00,450.00,VWS V14.01,2013-12-11 19:05:00,
2013-12-11 13:09:00,34.1,24.3,30.46,NE,41,0.0,5.0,67,0.00,,CLR,0.00,448.00,VWS V14.01,2013-12-11 19:09:00,
2013-12-11 13:10:00,34.3,23.8,30.46,North,9,0.0,5.0,65,0.00,,CLR,0.00,443.00,VWS V14.01,2013-12-11 19:10:00,
2013-12-11 13:14:00,34.4,23.9,30.46,NNE,28,0.0,4.0,65,0.00,,CLR,0.00,438.00,VWS V14.01,2013-12-11 19:14:00,
2013-12-11 13:15:00,34.5,24.0,30.47,NNE,28,0.0,4.0,65,0.00,,CLR,0.00,438.00,VWS V14.01,2013-12-11 19:15:00,
2013-12-11 13:19:00,34.8,25.0,30.47,NNE,24,3.0,4.0,67,0.00,,CLR,0.00,438.00,VWS V14.01,2013-12-11 19:19:00,
2013-12-11 13:20:00,34.9,24.3,30.47,NNE,28,1.0,4.0,65,0.00,,CLR,0.00,438.00,VWS V14.01,2013-12-11 19:20:00,
2013-12-11 13:24:00,35.1,24.2,30.47,NNE,27,1.0,3.0,64,0.00,,CLR,0.00,429.00,VWS V14.01,2013-12-11 19:24:00,
2013-12-11 13:25:00,35.0,24.1,30.47,NNE,13,1.0,3.0,64,0.00,,CLR,0.00,424.00,VWS V14.01,2013-12-11 19:25:00,
2013-12-11 13:29:00,35.0,24.1,30.47,North,5,2.0,3.0,64,0.00,,CLR,0.00,417.00,VWS V14.01,2013-12-11 19:29:00,
2013-12-11 13:30:00,35.1,24.2,30.47,North,5,0.0,4.0,64,0.00,,CLR,0.00,422.00,VWS V14.01,2013-12-11 19:30:00,
2013-12-11 13:34:00,35.3,24.0,30.47,NNW,338,1.0,3.0,63,0.00,,CLR,0.00,413.00,VWS V14.01,2013-12-11 19:34:00,
2013-12-11 13:35:00,35.3,24.0,30.47,North,355,3.0,4.0,63,0.00,,CLR,0.00,410.00,VWS V14.01,2013-12-11 19:35:00,
2013-12-11 13:40:00,35.2,23.5,30.47,West,281,2.0,3.0,62,0.00,,CLR,0.00,406.00,VWS V14.01,2013-12-11 19:40:00,
2013-12-11 13:45:00,35.1,23.4,30.47,NE,34,0.0,6.0,62,0.00,,CLR,0.00,399.00,VWS V14.01,2013-12-11 19:45:00,
2013-12-11 13:50:00,35.1,24.2,30.47,North,351,0.0,3.0,64,0.00,,CLR,0.00,392.00,VWS V14.01,2013-12-11 19:50:00,
2013-12-11 13:55:00,35.3,23.6,30.47,NNW,345,2.0,2.0,62,0.00,,CLR,0.00,385.00,VWS V14.01,2013-12-11 19:55:00,
2013-12-11 14:00:00,35.5,23.8,30.47,North,9,3.0,3.0,62,0.00,,CLR,0.00,380.00,VWS V14.01,2013-12-11 20:00:00,
2013-12-11 14:05:00,35.5,23.4,30.47,NNE,22,4.0,4.0,61,0.00,,CLR,0.00,369.00,VWS V14.01,2013-12-11 20:05:00,
2013-12-11 14:10:00,35.3,22.4,30.47,NNW,328,3.0,4.0,59,0.00,,CLR,0.00,364.00,VWS V14.01,2013-12-11 20:10:00,
2013-12-11 14:15:00,35.1,22.2,30.47,NNW,343,0.0,4.0,59,0.00,,CLR,0.00,352.00,VWS V14.01,2013-12-11 20:15:00,
2013-12-11 14:20:00,35.0,22.5,30.47,NNE,27,2.0,4.0,60,0.00,,CLR,0.00,341.00,VWS V14.01,2013-12-11 20:20:00,
2013-12-11 14:25:00,34.9,22.8,30.47,North,5,0.0,4.0,61,0.00,,CLR,0.00,332.00,VWS V14.01,2013-12-11 20:25:00,
2013-12-11 14:30:00,35.1,22.6,30.47,NW,306,0.0,2.0,60,0.00,,CLR,0.00,323.00,VWS V14.01,2013-12-11 20:30:00,
2013-12-11 14:35:00,35.4,22.9,30.47,West,265,0.0,4.0,60,0.00,,CLR,0.00,309.00,VWS V14.01,2013-12-11 20:35:00,
2013-12-11 14:40:00,35.0,23.3,30.47,NW,308,1.0,2.0,62,0.00,,CLR,0.00,301.00,VWS V14.01,2013-12-11 20:40:00,
2013-12-11 14:45:00,35.0,22.5,30.48,NE,42,0.0,4.0,60,0.00,,CLR,0.00,288.00,VWS V14.01,2013-12-11 20:45:00,
2013-12-11 14:50:00,34.6,22.5,30.48,NW,313,3.0,8.0,61,0.00,,CLR,0.00,283.00,VWS V14.01,2013-12-11 20:50:00,
2013-12-11 14:55:00,34.3,22.3,30.48,NNW,333,0.0,3.0,61,0.00,,CLR,0.00,267.00,VWS V14.01,2013-12-11 20:55:00,
2013-12-11 15:00:00,34.4,22.4,30.48,NNW,330,3.0,4.0,61,0.00,,CLR,0.00,258.00,VWS V14.01,2013-12-11 21:00:00,
2013-12-11 15:05:00,34.0,22.0,30.48,NNE,15,0.0,6.0,61,0.00,,CLR,0.00,244.00,VWS V14.01,2013-12-11 21:05:00,
2013-12-11 15:10:00,34.1,21.7,30.48,NNE,19,0.0,3.0,60,0.00,,CLR,0.00,234.00,VWS V14.01,2013-12-11 21:10:00,
2013-12-11 15:15:00,34.1,21.3,30.48,WNW,286,0.0,4.0,59,0.00,,CLR,0.00,225.00,VWS V14.01,2013-12-11 21:15:00,
2013-12-11 15:20:00,34.1,21.7,30.48,WNW,285,0.0,1.0,60,0.00,,CLR,0.00,214.00,VWS V14.01,2013-12-11 21:20:00,
2013-12-11 15:25:00,33.9,21.5,30.48,West,275,1.0,2.0,60,0.00,,CLR,0.00,200.00,VWS V14.01,2013-12-11 21:25:00,
2013-12-11 15:30:00,33.8,21.4,30.49,NW,304,1.0,3.0,60,0.00,,CLR,0.00,192.00,VWS V14.01,2013-12-11 21:30:00,
2013-12-11 15:35:00,33.8,21.4,30.49,NW,304,0.0,2.0,60,0.00,,CLR,0.00,181.00,VWS V14.01,2013-12-11 21:35:00,
2013-12-11 15:40:00,33.7,20.9,30.49,NNE,33,1.0,3.0,59,0.00,,CLR,0.00,167.00,VWS V14.01,2013-12-11 21:40:00,
2013-12-11 15:45:00,33.7,20.9,30.49,NW,314,0.0,2.0,59,0.00,,CLR,0.00,158.00,VWS V14.01,2013-12-11 21:45:00,
2013-12-11 15:50:00,33.9,20.3,30.49,West,265,0.0,4.0,57,0.00,,CLR,0.00,135.00,VWS V14.01,2013-12-11 21:50:00,
2013-12-11 15:55:00,33.6,20.0,30.49,WNW,297,0.0,2.0,57,0.00,,CLR,0.00,120.00,VWS V14.01,2013-12-11 21:55:00,
2013-12-11 16:00:00,33.4,19.4,30.50,NNW,348,0.0,2.0,56,0.00,,CLR,0.00,105.00,VWS V14.01,2013-12-11 22:00:00,
2013-12-11 16:05:00,33.1,18.7,30.50,NNW,337,2.0,2.0,55,0.00,,CLR,0.00,93.00,VWS V14.01,2013-12-11 22:05:00,
2013-12-11 16:10:00,33.1,19.1,30.50,NNW,337,0.0,2.0,56,0.00,,CLR,0.00,77.00,VWS V14.01,2013-12-11 22:10:00,
2013-12-11 16:15:00,32.8,18.4,30.50,NNW,337,0.0,0.0,55,0.00,,CLR,0.00,63.00,VWS V14.01,2013-12-11 22:15:00,
2013-12-11 16:20:00,32.7,18.8,30.50,North,5,0.0,3.0,56,0.00,,CLR,0.00,53.00,VWS V14.01,2013-12-11 22:20:00,
2013-12-11 16:25:00,32.1,18.6,30.50,North,5,0.0,0.0,57,0.00,,CLR,0.00,44.00,VWS V14.01,2013-12-11 22:25:00,
2013-12-11 16:30:00,31.8,18.3,30.50,North,5,0.0,1.0,57,0.00,,CLR,0.00,44.00,VWS V14.01,2013-12-11 22:30:00,
2013-12-11 16:35:00,31.4,18.4,30.50,North,5,0.0,0.0,58,0.00,,CLR,0.00,23.00,VWS V14.01,2013-12-11 22:35:00,
2013-12-11 16:36:00,31.4,18.4,30.50,North,5,0.0,0.0,58,0.00,,CLR,0.00,23.00,VWS V14.01,2013-12-11 22:36:00,
2013-12-11 16:40:00,31.1,18.1,30.50,North,5,0.0,1.0,58,0.00,,CLR,0.00,18.00,VWS V14.01,2013-12-11 22:40:00,
2013-12-11 16:41:00,31.1,18.1,30.50,North,5,0.0,1.0,58,0.00,,CLR,0.00,18.00,VWS V14.01,2013-12-11 22:41:00,
2013-12-11 16:45:00,30.7,17.3,30.50,North,5,0.0,1.0,57,0.00,,CLR,0.00,11.00,VWS V14.01,2013-12-11 22:45:00,
2013-12-11 16:46:00,30.7,17.3,30.50,North,5,0.0,1.0,57,0.00,,CLR,0.00,11.00,VWS V14.01,2013-12-11 22:46:00,
2013-12-11 16:50:00,30.1,17.5,30.50,North,5,0.0,0.0,59,0.00,,CLR,0.00,7.00,VWS V14.01,2013-12-11 22:50:00,
2013-12-11 16:51:00,30.1,17.5,30.50,North,5,0.0,0.0,59,0.00,,CLR,0.00,7.00,VWS V14.01,2013-12-11 22:51:00,
2013-12-11 16:55:00,29.8,17.2,30.50,North,5,0.0,1.0,59,0.00,,CLR,0.00,5.00,VWS V14.01,2013-12-11 22:55:00,
2013-12-11 16:56:00,29.8,17.2,30.50,North,5,0.0,1.0,59,0.00,,CLR,0.00,5.00,VWS V14.01,2013-12-11 22:56:00,
2013-12-11 17:00:00,29.6,17.0,30.51,North,5,0.0,0.0,59,0.00,,CLR,0.00,0.00,VWS V14.01,2013-12-11 23:00:00,
2013-12-11 17:01:00,29.6,17.0,30.51,North,5,0.0,0.0,59,0.00,,CLR,0.00,0.00,VWS V14.01,2013-12-11 23:01:00,
2013-12-11 17:05:00,29.2,16.7,30.51,North,5,0.0,0.0,59,0.00,,CLR,0.00,0.00,VWS V14.01,2013-12-11 23:05:00,
2013-12-11 17:06:00,29.2,16.7,30.51,North,5,0.0,0.0,59,0.00,,CLR,0.00,0.00,VWS V14.01,2013-12-11 23:06:00,
2013-12-11 17:10:00,29.0,16.5,30.51,North,5,0.0,0.0,59,0.00,,CLR,0.00,0.00,VWS V14.01,2013-12-11 23:10:00,
2013-12-11 17:11:00,29.0,16.5,30.51,North,5,0.0,0.0,59,0.00,,CLR,0.00,0.00,VWS V14.01,2013-12-11 23:11:00,
2013-12-11 17:15:00,28.8,15.9,30.51,North,5,0.0,0.0,58,0.00,,CLR,0.00,0.00,VWS V14.01,2013-12-11 23:15:00,
2013-12-11 17:16:00,28.8,15.9,30.51,North,5,0.0,0.0,58,0.00,,CLR,0.00,0.00,VWS V14.01,2013-12-11 23:16:00,
2013-12-11 17:20:00,28.5,15.6,30.51,North,5,0.0,0.0,58,0.00,,CLR,0.00,0.00,VWS V14.01,2013-12-11 23:20:00,
2013-12-11 17:21:00,28.5,15.6,30.51,North,5,0.0,0.0,58,0.00,,CLR,0.00,0.00,VWS V14.01,2013-12-11 23:21:00,
2013-12-11 17:25:00,28.4,15.5,30.51,North,5,0.0,0.0,58,0.00,,CLR,0.00,0.00,VWS V14.01,2013-12-11 23:25:00,
2013-12-11 17:26:00,28.4,15.5,30.51,North,5,0.0,0.0,58,0.00,,CLR,0.00,0.00,VWS V14.01,2013-12-11 23:26:00,
2013-12-11 17:30:00,28.2,15.3,30.51,North,5,0.0,0.0,58,0.00,,CLR,0.00,0.00,VWS V14.01,2013-12-11 23:30:00,
2013-12-11 17:31:00,28.2,15.3,30.51,North,5,0.0,0.0,58,0.00,,CLR,0.00,0.00,VWS V14.01,2013-12-11 23:31:00,
2013-12-11 17:35:00,28.0,15.5,30.51,North,5,0.0,0.0,59,0.00,,CLR,0.00,0.00,VWS V14.01,2013-12-11 23:35:00,
2013-12-11 17:36:00,28.0,15.5,30.51,North,5,0.0,0.0,59,0.00,,CLR,0.00,0.00,VWS V14.01,2013-12-11 23:36:00,
2013-12-11 17:40:00,27.7,15.3,30.51,North,5,0.0,0.0,59,0.00,,CLR,0.00,0.00,VWS V14.01,2013-12-11 23:40:00,
2013-12-11 17:41:00,27.7,15.3,30.51,North,5,0.0,0.0,59,0.00,,CLR,0.00,0.00,VWS V14.01,2013-12-11 23:41:00,
2013-12-11 17:45:00,27.8,15.7,30.52,North,5,0.0,0.0,60,0.00,,CLR,0.00,0.00,VWS V14.01,2013-12-11 23:45:00,
2013-12-11 17:46:00,27.8,15.7,30.52,North,5,0.0,0.0,60,0.00,,CLR,0.00,0.00,VWS V14.01,2013-12-11 23:46:00,
2013-12-11 17:50:00,27.7,15.3,30.52,North,5,0.0,0.0,59,0.00,,CLR,0.00,0.00,VWS V14.01,2013-12-11 23:50:00,
2013-12-11 17:51:00,27.7,15.3,30.52,North,5,0.0,0.0,59,0.00,,CLR,0.00,0.00,VWS V14.01,2013-12-11 23:51:00,
2013-12-11 17:55:00,27.6,15.6,30.52,North,5,0.0,1.0,60,0.00,,CLR,0.00,0.00,VWS V14.01,2013-12-11 23:55:00,
2013-12-11 17:56:00,27.6,15.6,30.52,North,5,1.0,1.0,60,0.00,,CLR,0.00,0.00,VWS V14.01,2013-12-11 23:56:00,
2013-12-11 18:00:00,27.5,15.4,30.52,North,5,0.0,1.0,60,0.00,,CLR,0.00,0.00,VWS V14.01,2013-12-12 00:00:00,
2013-12-11 18:01:00,27.5,15.4,30.52,North,5,0.0,0.0,60,0.00,,CLR,0.00,0.00,VWS V14.01,2013-12-12 00:01:00,
2013-12-11 18:05:00,27.4,15.7,30.52,North,5,0.0,1.0,61,0.00,,CLR,0.00,0.00,VWS V14.01,2013-12-12 00:05:00,
2013-12-11 18:06:00,27.4,15.4,30.52,North,5,0.0,0.0,60,0.00,,CLR,0.00,0.00,VWS V14.01,2013-12-12 00:06:00,
2013-12-11 18:10:00,27.3,15.3,30.52,North,5,0.0,1.0,60,0.00,,CLR,0.00,0.00,VWS V14.01,2013-12-12 00:10:00,
2013-12-11 18:11:00,27.2,15.2,30.52,North,5,0.0,0.0,60,0.00,,CLR,0.00,0.00,VWS V14.01,2013-12-12 00:11:00,
2013-12-11 18:15:00,27.0,15.0,30.52,North,5,0.0,2.0,60,0.00,,CLR,0.00,0.00,VWS V14.01,2013-12-12 00:15:00,
2013-12-11 18:16:00,27.0,15.4,30.52,North,5,0.0,0.0,61,0.00,,CLR,0.00,0.00,VWS V14.01,2013-12-12 00:16:00,
2013-12-11 18:20:00,26.7,15.4,30.52,North,5,0.0,1.0,62,0.00,,CLR,0.00,0.00,VWS V14.01,2013-12-12 00:20:00,
2013-12-11 18:21:00,26.7,15.4,30.52,North,5,0.0,1.0,62,0.00,,CLR,0.00,0.00,VWS V14.01,2013-12-12 00:21:00,
2013-12-11 18:25:00,26.5,15.3,30.52,North,5,0.0,1.0,62,0.00,,CLR,0.00,0.00,VWS V14.01,2013-12-12 00:25:00,
2013-12-11 18:26:00,26.5,15.3,30.52,North,5,0.0,0.0,62,0.00,,CLR,0.00,0.00,VWS V14.01,2013-12-12 00:26:00,
2013-12-11 18:30:00,26.2,15.3,30.53,North,5,0.0,1.0,63,0.00,,CLR,0.00,0.00,VWS V14.01,2013-12-12 00:30:00,
2013-12-11 18:31:00,26.2,15.3,30.53,North,5,1.0,1.0,63,0.00,,CLR,0.00,0.00,VWS V14.01,2013-12-12 00:31:00,
2013-12-11 18:35:00,26.0,15.1,30.53,North,5,0.0,2.0,63,0.00,,CLR,0.00,0.00,VWS V14.01,2013-12-12 00:35:00,
2013-12-11 18:36:00,25.9,15.1,30.53,North,5,0.0,2.0,63,0.00,,CLR,0.00,0.00,VWS V14.01,2013-12-12 00:36:00,
2013-12-11 18:40:00,25.7,15.2,30.53,North,5,2.0,2.0,64,0.00,,CLR,0.00,0.00,VWS V14.01,2013-12-12 00:40:00,
2013-12-11 18:41:00,25.7,14.9,30.53,North,5,2.0,2.0,63,0.00,,CLR,0.00,0.00,VWS V14.01,2013-12-12 00:41:00,
2013-12-11 18:45:00,25.6,15.1,30.54,North,5,0.0,2.0,64,0.00,,CLR,0.00,0.00,VWS V14.01,2013-12-12 00:45:00,
2013-12-11 18:46:00,25.6,15.1,30.54,North,5,0.0,0.0,64,0.00,,CLR,0.00,0.00,VWS V14.01,2013-12-12 00:46:00,
2013-12-11 18:50:00,25.4,14.9,30.54,North,5,0.0,0.0,64,0.00,,CLR,0.00,0.00,VWS V14.01,2013-12-12 00:50:00,
2013-12-11 18:51:00,25.4,14.6,30.54,North,5,0.0,0.0,63,0.00,,CLR,0.00,0.00,VWS V14.01,2013-12-12 00:51:00,
2013-12-11 18:55:00,25.3,14.5,30.54,North,5,0.0,0.0,63,0.00,,CLR,0.00,0.00,VWS V14.01,2013-12-12 00:55:00,
2013-12-11 18:56:00,25.3,14.5,30.54,North,5,0.0,0.0,63,0.00,,CLR,0.00,0.00,VWS V14.01,2013-12-12 00:56:00,
2013-12-11 19:00:00,25.1,14.3,30.54,North,5,0.0,1.0,63,0.00,,CLR,0.00,0.00,VWS V14.01,2013-12-12 01:00:00,
2013-12-11 19:01:00,25.0,14.2,30.54,North,5,0.0,0.0,63,0.00,,CLR,0.00,0.00,VWS V14.01,2013-12-12 01:01:00,
2013-12-11 19:05:00,24.8,14.4,30.54,North,5,0.0,1.0,64,0.00,,CLR,0.00,0.00,VWS V14.01,2013-12-12 01:05:00,
2013-12-11 19:06:00,24.8,14.4,30.54,North,5,0.0,0.0,64,0.00,,CLR,0.00,0.00,VWS V14.01,2013-12-12 01:06:00,
2013-12-11 19:10:00,24.6,14.2,30.54,North,5,0.0,1.0,64,0.00,,CLR,0.00,0.00,VWS V14.01,2013-12-12 01:10:00,
2013-12-11 19:11:00,24.6,14.2,30.54,North,5,0.0,0.0,64,0.00,,CLR,0.00,0.00,VWS V14.01,2013-12-12 01:11:00,
2013-12-11 19:15:00,24.5,14.1,30.55,North,5,0.0,0.0,64,0.00,,CLR,0.00,0.00,VWS V14.01,2013-12-12 01:15:00,
2013-12-11 19:16:00,24.4,14.0,30.55,North,5,0.0,0.0,64,0.00,,CLR,0.00,0.00,VWS V14.01,2013-12-12 01:16:00,
2013-12-11 19:20:00,24.3,13.9,30.55,North,5,0.0,0.0,64,0.00,,CLR,0.00,0.00,VWS V14.01,2013-12-12 01:20:00,
2013-12-11 19:21:00,24.3,13.9,30.55,North,5,0.0,2.0,64,0.00,,CLR,0.00,0.00,VWS V14.01,2013-12-12 01:21:00,
2013-12-11 19:25:00,24.2,13.8,30.55,North,5,0.0,2.0,64,0.00,,CLR,0.00,0.00,VWS V14.01,2013-12-12 01:25:00,
2013-12-11 19:26:00,24.2,13.8,30.55,North,5,0.0,0.0,64,0.00,,CLR,0.00,0.00,VWS V14.01,2013-12-12 01:26:00,
2013-12-11 19:30:00,23.9,13.9,30.56,North,5,0.0,0.0,65,0.00,,CLR,0.00,0.00,VWS V14.01,2013-12-12 01:30:00,
2013-12-11 19:31:00,23.8,14.1,30.56,North,5,0.0,0.0,66,0.00,,CLR,0.00,0.00,VWS V14.01,2013-12-12 01:31:00,
2013-12-11 19:35:00,23.7,14.0,30.56,North,5,0.0,0.0,66,0.00,,CLR,0.00,0.00,VWS V14.01,2013-12-12 01:35:00,
2013-12-11 19:37:00,23.7,13.7,30.56,North,5,0.0,0.0,65,0.00,,CLR,0.00,0.00,VWS V14.01,2013-12-12 01:37:00,
2013-12-11 19:40:00,23.7,13.7,30.56,North,5,0.0,1.0,65,0.00,,CLR,0.00,0.00,VWS V14.01,2013-12-12 01:40:00,
2013-12-11 19:42:00,23.7,13.7,30.56,North,5,1.0,2.0,65,0.00,,CLR,0.00,0.00,VWS V14.01,2013-12-12 01:42:00,
2013-12-11 19:45:00,23.7,13.7,30.56,North,5,0.0,2.0,65,0.00,,CLR,0.00,0.00,VWS V14.01,2013-12-12 01:45:00,
2013-12-11 19:47:00,23.7,13.7,30.56,North,5,2.0,3.0,65,0.00,,CLR,0.00,0.00,VWS V14.01,2013-12-12 01:47:00,
2013-12-11 19:50:00,23.5,13.8,30.56,North,5,0.0,3.0,66,0.00,,CLR,0.00,0.00,VWS V14.01,2013-12-12 01:50:00,
2013-12-11 19:52:00,23.5,13.8,30.56,North,5,1.0,3.0,66,0.00,,CLR,0.00,0.00,VWS V14.01,2013-12-12 01:52:00,
2013-12-11 19:55:00,23.4,13.7,30.56,North,5,2.0,3.0,66,0.00,,CLR,0.00,0.00,VWS V14.01,2013-12-12 01:55:00,
2013-12-11 19:57:00,23.4,13.7,30.56,North,5,0.0,2.0,66,0.00,,CLR,0.00,0.00,VWS V14.01,2013-12-12 01:57:00,
2013-12-11 20:00:00,23.2,13.5,30.56,North,9,0.0,4.0,66,0.00,,CLR,0.00,0.00,VWS V14.01,2013-12-12 02:00:00,
2013-12-11 20:02:00,23.1,13.4,30.56,North,9,0.0,2.0,66,0.00,,CLR,0.00,0.00,VWS V14.01,2013-12-12 02:02:00,
2013-12-11 20:05:00,23.0,13.7,30.56,North,11,0.0,2.0,67,0.00,,CLR,0.00,0.00,VWS V14.01,2013-12-12 02:05:00,
2013-12-11 20:07:00,22.9,13.6,30.56,North,11,0.0,2.0,67,0.00,,CLR,0.00,0.00,VWS V14.01,2013-12-12 02:07:00,
2013-12-11 20:10:00,22.7,13.4,30.56,North,11,0.0,2.0,67,0.00,,CLR,0.00,0.00,VWS V14.01,2013-12-12 02:10:00,
2013-12-11 20:12:00,22.7,13.4,30.56,North,11,1.0,2.0,67,0.00,,CLR,0.00,0.00,VWS V14.01,2013-12-12 02:12:00,
2013-12-11 20:15:00,22.7,13.7,30.57,North,11,0.0,2.0,68,0.00,,CLR,0.00,0.00,VWS V14.01,2013-12-12 02:15:00,
2013-12-11 20:17:00,22.7,13.4,30.57,North,11,1.0,2.0,67,0.00,,CLR,0.00,0.00,VWS V14.01,2013-12-12 02:17:00,
2013-12-11 20:20:00,22.6,13.3,30.57,North,11,0.0,2.0,67,0.00,,CLR,0.00,0.00,VWS V14.01,2013-12-12 02:20:00,
2013-12-11 20:22:00,22.5,13.2,30.57,North,11,0.0,1.0,67,0.00,,CLR,0.00,0.00,VWS V14.01,2013-12-12 02:22:00,
2013-12-11 20:25:00,22.5,13.2,30.57,North,11,0.0,2.0,67,0.00,,CLR,0.00,0.00,VWS V14.01,2013-12-12 02:25:00,
2013-12-11 20:27:00,22.4,13.1,30.57,North,11,0.0,0.0,67,0.00,,CLR,0.00,0.00,VWS V14.01,2013-12-12 02:27:00,
2013-12-11 20:30:00,22.3,13.0,30.57,North,11,0.0,1.0,67,0.00,,CLR,0.00,0.00,VWS V14.01,2013-12-12 02:30:00,
2013-12-11 20:32:00,22.3,13.0,30.57,North,11,0.0,1.0,67,0.00,,CLR,0.00,0.00,VWS V14.01,2013-12-12 02:32:00,
2013-12-11 20:35:00,22.3,13.0,30.57,North,11,0.0,2.0,67,0.00,,CLR,0.00,0.00,VWS V14.01,2013-12-12 02:35:00,
2013-12-11 20:37:00,22.3,13.0,30.57,North,11,0.0,0.0,67,0.00,,CLR,0.00,0.00,VWS V14.01,2013-12-12 02:37:00,
2013-12-11 20:40:00,22.2,12.9,30.57,North,11,0.0,0.0,67,0.00,,CLR,0.00,0.00,VWS V14.01,2013-12-12 02:40:00,
2013-12-11 20:42:00,22.2,12.9,30.57,North,11,0.0,0.0,67,0.00,,CLR,0.00,0.00,VWS V14.01,2013-12-12 02:42:00,
2013-12-11 20:45:00,22.1,13.2,30.57,NNE,20,0.0,3.0,68,0.00,,CLR,0.00,0.00,VWS V14.01,2013-12-12 02:45:00,
2013-12-11 20:47:00,22.0,13.1,30.57,NNE,20,0.0,0.0,68,0.00,,CLR,0.00,0.00,VWS V14.01,2013-12-12 02:47:00,
2013-12-11 20:50:00,22.0,13.1,30.57,NNE,20,0.0,0.0,68,0.00,,CLR,0.00,0.00,VWS V14.01,2013-12-12 02:50:00,
2013-12-11 20:52:00,22.0,13.1,30.57,NNE,20,0.0,0.0,68,0.00,,CLR,0.00,0.00,VWS V14.01,2013-12-12 02:52:00,
2013-12-11 20:55:00,21.8,12.9,30.57,NNE,20,0.0,0.0,68,0.00,,CLR,0.00,0.00,VWS V14.01,2013-12-12 02:55:00,
2013-12-11 20:57:00,21.8,12.9,30.57,NNE,20,0.0,0.0,68,0.00,,CLR,0.00,0.00,VWS V14.01,2013-12-12 02:57:00,
2013-12-11 21:00:00,21.6,12.7,30.57,NNE,20,0.0,0.0,68,0.00,,CLR,0.00,0.00,VWS V14.01,2013-12-12 03:00:00,
2013-12-11 21:02:00,21.5,12.9,30.57,NNE,20,0.0,0.0,69,0.00,,CLR,0.00,0.00,VWS V14.01,2013-12-12 03:02:00,
2013-12-11 21:05:00,21.1,12.9,30.57,NNE,20,0.0,0.0,70,0.00,,CLR,0.00,0.00,VWS V14.01,2013-12-12 03:05:00,
2013-12-11 21:07:00,21.0,12.8,30.57,NNE,20,0.0,0.0,70,0.00,,CLR,0.00,0.00,VWS V14.01,2013-12-12 03:07:00,
2013-12-11 21:10:00,20.5,12.6,30.57,NNE,20,0.0,0.0,71,0.00,,CLR,0.00,0.00,VWS V14.01,2013-12-12 03:10:00,
2013-12-11 21:12:00,20.3,12.4,30.57,NNE,20,0.0,0.0,71,0.00,,CLR,0.00,0.00,VWS V14.01,2013-12-12 03:12:00,
2013-12-11 21:15:00,20.0,12.1,30.58,NNE,20,0.0,0.0,71,0.00,,CLR,0.00,0.00,VWS V14.01,2013-12-12 03:15:00,
2013-12-11 21:17:00,19.9,12.0,30.58,NNE,20,0.0,0.0,71,0.00,,CLR,0.00,0.00,VWS V14.01,2013-12-12 03:17:00,
2013-12-11 21:20:00,19.9,12.0,30.58,NNE,20,0.0,0.0,71,0.00,,CLR,0.00,0.00,VWS V14.01,2013-12-12 03:20:00,
2013-12-11 21:22:00,19.9,12.0,30.58,NNE,20,0.0,0.0,71,0.00,,CLR,0.00,0.00,VWS V14.01,2013-12-12 03:22:00,
2013-12-11 21:25:00,20.0,12.1,30.58,NNE,20,0.0,0.0,71,0.00,,CLR,0.00,0.00,VWS V14.01,2013-12-12 03:25:00,
2013-12-11 21:27:00,20.0,12.1,30.58,NNE,20,0.0,0.0,71,0.00,,CLR,0.00,0.00,VWS V14.01,2013-12-12 03:27:00,
2013-12-11 21:30:00,20.0,12.1,30.58,NNE,20,0.0,0.0,71,0.00,,CLR,0.00,0.00,VWS V14.01,2013-12-12 03:30:00,
2013-12-11 21:32:00,20.0,12.1,30.58,NNE,20,0.0,0.0,71,0.00,,CLR,0.00,0.00,VWS V14.01,2013-12-12 03:32:00,
2013-12-11 21:35:00,20.0,12.1,30.58,NNE,20,0.0,0.0,71,0.00,,CLR,0.00,0.00,VWS V14.01,2013-12-12 03:35:00,
2013-12-11 21:37:00,19.9,12.0,30.58,NNE,20,0.0,0.0,71,0.00,,CLR,0.00,0.00,VWS V14.01,2013-12-12 03:37:00,
2013-12-11 21:40:00,19.9,12.0,30.58,NNE,20,0.0,0.0,71,0.00,,CLR,0.00,0.00,VWS V14.01,2013-12-12 03:40:00,
2013-12-11 21:42:00,19.8,11.9,30.58,NNE,20,0.0,0.0,71,0.00,,CLR,0.00,0.00,VWS V14.01,2013-12-12 03:42:00,
2013-12-11 21:45:00,19.8,12.2,30.58,NNE,20,0.0,0.0,72,0.00,,CLR,0.00,0.00,VWS V14.01,2013-12-12 03:45:00,
2013-12-11 21:47:00,19.7,12.1,30.58,NNE,20,0.0,0.0,72,0.00,,CLR,0.00,0.00,VWS V14.01,2013-12-12 03:47:00,
2013-12-11 21:50:00,19.7,12.1,30.58,NNE,20,0.0,0.0,72,0.00,,CLR,0.00,0.00,VWS V14.01,2013-12-12 03:50:00,
2013-12-11 21:52:00,19.7,12.1,30.58,NNE,20,0.0,0.0,72,0.00,,CLR,0.00,0.00,VWS V14.01,2013-12-12 03:52:00,
2013-12-11 21:55:00,19.6,12.1,30.58,NNE,20,0.0,0.0,72,0.00,,CLR,0.00,0.00,VWS V14.01,2013-12-12 03:55:00,
2013-12-11 21:57:00,19.6,12.1,30.58,NNE,20,0.0,0.0,72,0.00,,CLR,0.00,0.00,VWS V14.01,2013-12-12 03:57:00,
2013-12-11 22:00:00,19.5,12.0,30.58,NNE,20,0.0,0.0,72,0.00,,CLR,0.00,0.00,VWS V14.01,2013-12-12 04:00:00,
2013-12-11 22:02:00,19.5,12.0,30.58,NNE,20,0.0,0.0,72,0.00,,CLR,0.00,0.00,VWS V14.01,2013-12-12 04:02:00,
2013-12-11 22:05:00,19.4,12.2,30.58,NNE,20,0.0,0.0,73,0.00,,CLR,0.00,0.00,VWS V14.01,2013-12-12 04:05:00,
2013-12-11 22:07:00,19.4,12.2,30.58,NNE,20,0.0,0.0,73,0.00,,CLR,0.00,0.00,VWS V14.01,2013-12-12 04:07:00,
2013-12-11 22:10:00,19.4,12.2,30.58,NNE,21,0.0,0.0,73,0.00,,CLR,0.00,0.00,VWS V14.01,2013-12-12 04:10:00,
2013-12-11 22:12:00,19.3,12.1,30.58,NNE,20,0.0,0.0,73,0.00,,CLR,0.00,0.00,VWS V14.01,2013-12-12 04:12:00,
2013-12-11 22:15:00,19.3,12.1,30.58,NNE,20,0.0,0.0,73,0.00,,CLR,0.00,0.00,VWS V14.01,2013-12-12 04:15:00,
2013-12-11 22:17:00,19.3,12.1,30.58,NNE,20,0.0,0.0,73,0.00,,CLR,0.00,0.00,VWS V14.01,2013-12-12 04:17:00,
2013-12-11 22:20:00,19.3,12.1,30.58,NNE,20,0.0,0.0,73,0.00,,CLR,0.00,0.00,VWS V14.01,2013-12-12 04:20:00,
2013-12-11 22:22:00,19.2,12.0,30.58,NNE,20,0.0,0.0,73,0.00,,CLR,0.00,0.00,VWS V14.01,2013-12-12 04:22:00,
2013-12-11 22:25:00,19.2,12.0,30.58,NNE,20,0.0,0.0,73,0.00,,CLR,0.00,0.00,VWS V14.01,2013-12-12 04:25:00,
2013-12-11 22:27:00,19.2,12.0,30.58,NNE,20,0.0,0.0,73,0.00,,CLR,0.00,0.00,VWS V14.01,2013-12-12 04:27:00,
2013-12-11 22:30:00,19.1,12.2,30.58,NNE,20,0.0,0.0,74,0.00,,CLR,0.00,0.00,VWS V14.01,2013-12-12 04:30:00,
2013-12-11 22:32:00,19.1,11.9,30.58,NNE,20,0.0,0.0,73,0.00,,CLR,0.00,0.00,VWS V14.01,2013-12-12 04:32:00,
2013-12-11 22:35:00,19.1,12.2,30.58,NNE,20,0.0,0.0,74,0.00,,CLR,0.00,0.00,VWS V14.01,2013-12-12 04:35:00,
2013-12-11 22:38:00,19.1,12.2,30.58,NNE,20,0.0,0.0,74,0.00,,CLR,0.00,0.00,VWS V14.01,2013-12-12 04:38:00,
2013-12-11 22:40:00,19.0,12.1,30.58,NNE,20,0.0,0.0,74,0.00,,CLR,0.00,0.00,VWS V14.01,2013-12-12 04:40:00,
2013-12-11 22:43:00,19.0,12.1,30.58,NNE,20,0.0,0.0,74,0.00,,CLR,0.00,0.00,VWS V14.01,2013-12-12 04:43:00,
2013-12-11 22:45:00,19.0,12.1,30.59,NNE,20,0.0,0.0,74,0.00,,CLR,0.00,0.00,VWS V14.01,2013-12-12 04:45:00,
2013-12-11 22:48:00,18.9,12.0,30.59,NNE,20,0.0,0.0,74,0.00,,CLR,0.00,0.00,VWS V14.01,2013-12-12 04:48:00,
2013-12-11 22:50:00,18.9,11.7,30.59,NNE,20,0.0,0.0,73,0.00,,CLR,0.00,0.00,VWS V14.01,2013-12-12 04:50:00,
2013-12-11 22:53:00,18.8,11.6,30.59,NNE,20,0.0,0.0,73,0.00,,CLR,0.00,0.00,VWS V14.01,2013-12-12 04:53:00,
2013-12-11 22:55:00,18.6,11.4,30.59,NNE,20,0.0,0.0,73,0.00,,CLR,0.00,0.00,VWS V14.01,2013-12-12 04:55:00,
2013-12-11 22:58:00,18.5,11.3,30.59,NNE,20,0.0,0.0,73,0.00,,CLR,0.00,0.00,VWS V14.01,2013-12-12 04:58:00,
2013-12-11 23:00:00,18.3,11.4,30.59,NNE,20,0.0,0.0,74,0.00,,CLR,0.00,0.00,VWS V14.01,2013-12-12 05:00:00,
2013-12-11 23:01:00,18.3,11.4,30.59,NNE,20,0.0,0.0,74,0.00,,CLR,0.00,0.00,VWS V14.01,2013-12-12 05:01:00,
2013-12-11 23:03:00,18.1,11.5,30.59,NNE,20,0.0,0.0,75,0.00,,CLR,0.00,0.00,VWS V14.01,2013-12-12 05:03:00,
2013-12-11 23:05:00,17.8,11.2,30.59,NNE,20,0.0,0.0,75,0.00,,CLR,0.00,0.00,VWS V14.01,2013-12-12 05:05:00,
2013-12-11 23:08:00,17.7,11.1,30.59,NNE,20,0.0,0.0,75,0.00,,CLR,0.00,0.00,VWS V14.01,2013-12-12 05:08:00,
2013-12-11 23:10:00,17.6,11.0,30.59,NNE,20,0.0,0.0,75,0.00,,CLR,0.00,0.00,VWS V14.01,2013-12-12 05:10:00,
2013-12-11 23:13:00,17.5,10.9,30.59,NNE,20,0.0,0.0,75,0.00,,CLR,0.00,0.00,VWS V14.01,2013-12-12 05:13:00,
2013-12-11 23:15:00,17.3,10.8,30.59,NNE,20,0.0,0.0,75,0.00,,CLR,0.00,0.00,VWS V14.01,2013-12-12 05:15:00,
2013-12-11 23:16:00,17.3,10.8,30.59,NNE,20,0.0,0.0,75,0.00,,CLR,0.00,0.00,VWS V14.01,2013-12-12 05:16:00,
2013-12-11 23:17:00,17.2,10.9,30.59,NNE,20,0.0,0.0,76,0.00,,CLR,0.00,0.00,VWS V14.01,2013-12-12 05:17:00,
2013-12-11 23:18:00,17.1,10.9,30.59,NNE,20,0.0,0.0,76,0.00,,CLR,0.00,0.00,VWS V14.01,2013-12-12 05:18:00,
2013-12-11 23:20:00,16.8,11.1,30.59,NNE,20,0.0,0.0,78,0.00,,CLR,0.00,0.00,VWS V14.01,2013-12-12 05:20:00,
2013-12-11 23:23:00,16.6,10.9,30.59,NNE,20,0.0,0.0,78,0.00,,CLR,0.00,0.00,VWS V14.01,2013-12-12 05:23:00,
2013-12-11 23:25:00,16.5,11.4,30.59,NNE,20,0.0,0.0,80,0.00,,CLR,0.00,0.00,VWS V14.01,2013-12-12 05:25:00,
2013-12-11 23:28:00,16.4,11.3,30.59,NNE,20,0.0,0.0,80,0.00,,CLR,0.00,0.00,VWS V14.01,2013-12-12 05:28:00,
2013-12-11 23:30:00,16.3,10.9,30.58,NNE,20,0.0,0.0,79,0.00,,CLR,0.00,0.00,VWS V14.01,2013-12-12 05:30:00,
2013-12-11 23:33:00,16.3,10.9,30.58,NNE,20,0.0,0.0,79,0.00,,CLR,0.00,0.00,VWS V14.01,2013-12-12 05:33:00,
2013-12-11 23:35:00,16.2,10.9,30.58,NNE,20,0.0,0.0,79,0.00,,CLR,0.00,0.00,VWS V14.01,2013-12-12 05:35:00,
2013-12-11 23:38:00,16.2,10.8,30.58,NNE,20,0.0,0.0,79,0.00,,CLR,0.00,0.00,VWS V14.01,2013-12-12 05:38:00,
2013-12-11 23:40:00,16.1,10.8,30.58,NNE,20,0.0,0.0,79,0.00,,CLR,0.00,0.00,VWS V14.01,2013-12-12 05:40:00,
2013-12-11 23:43:00,16.1,10.8,30.58,NNE,20,0.0,0.0,79,0.00,,CLR,0.00,0.00,VWS V14.01,2013-12-12 05:43:00,
2013-12-11 23:45:00,16.0,10.6,30.59,NNE,20,0.0,0.0,79,0.00,,CLR,0.00,0.00,VWS V14.01,2013-12-12 05:45:00,
2013-12-11 23:48:00,15.9,10.6,30.59,NNE,20,0.0,0.0,79,0.00,,CLR,0.00,0.00,VWS V14.01,2013-12-12 05:48:00,
2013-12-11 23:50:00,15.9,10.6,30.59,NNE,20,0.0,0.0,79,0.00,,CLR,0.00,0.00,VWS V14.01,2013-12-12 05:50:00,
2013-12-11 23:53:00,15.8,10.5,30.59,NNE,20,0.0,0.0,79,0.00,,CLR,0.00,0.00,VWS V14.01,2013-12-12 05:53:00,
2013-12-11 23:55:00,15.7,10.1,30.59,NNE,20,0.0,0.0,78,0.00,,CLR,0.00,0.00,VWS V14.01,2013-12-12 05:55:00,
2013-12-11 23:58:00,15.5,9.9,30.59,NNE,20,0.0,0.0,78,0.00,,CLR,0.00,0.00,VWS V14.01,2013-12-12 05:58:00,